TimeCDT,TemperatureF,Dew PointF,Humidity,Sea Level PressureIn,VisibilityMPH,Wind Direction,Wind SpeedMPH,Gust SpeedMPH,PrecipitationIn,Events,Conditions,WindDirDegrees,DateUTC
12:55 AM,69.8,69.8,100,29.83,8.0,North,8.1,-,N/A,Rain,Light Rain,10,2013-09-21 05:55:00
1:55 AM,69.8,69.8,100,29.83,8.0,NNW,6.9,-,N/A,Rain,Light Rain,340,2013-09-21 06:55:00
2:55 AM,69.8,69.8,100,29.83,10.0,NNW,6.9,-,N/A,,Mostly Cloudy,330,2013-09-21 07:55:00
3:15 AM,69.8,69.8,100,29.83,10.0,NNW,15.0,-,N/A,,Overcast,340,2013-09-21 08:15:00
3:35 AM,68.0,66.2,94,29.83,10.0,NNW,10.4,-,N/A,,Overcast,340,2013-09-21 08:35:00
3:55 AM,68.0,66.2,94,29.83,10.0,North,12.7,-,N/A,,Overcast,350,2013-09-21 08:55:00
4:15 AM,68.0,66.2,94,29.83,8.0,North,12.7,-,N/A,,Overcast,350,2013-09-21 09:15:00
4:35 AM,66.2,66.2,100,29.84,10.0,North,10.4,-,N/A,,Overcast,360,2013-09-21 09:35:00
4:55 AM,66.2,66.2,100,29.84,10.0,North,9.2,-,N/A,,Overcast,350,2013-09-21 09:55:00
5:15 AM,66.2,64.4,94,29.85,10.0,NNW,9.2,-,N/A,,Overcast,330,2013-09-21 10:15:00
5:35 AM,66.2,62.6,88,29.86,10.0,North,11.5,-,N/A,,Overcast,350,2013-09-21 10:35:00
5:55 AM,66.2,64.4,94,29.86,10.0,North,9.2,-,N/A,,Overcast,350,2013-09-21 10:55:00
6:55 AM,66.2,62.6,88,29.88,10.0,North,8.1,-,N/A,,Overcast,350,2013-09-21 11:55:00
7:55 AM,64.4,60.8,88,29.90,10.0,North,9.2,-,N/A,,Overcast,360,2013-09-21 12:55:00
8:55 AM,64.4,59.0,83,29.91,10.0,North,10.4,-,N/A,,Clear,10,2013-09-21 13:55:00
9:55 AM,64.4,60.8,88,29.93,10.0,NNE,11.5,-,N/A,,Mostly Cloudy,20,2013-09-21 14:55:00
10:55 AM,69.8,55.4,60,29.93,10.0,NNE,11.5,-,N/A,,Scattered Clouds,30,2013-09-21 15:55:00
11:55 AM,71.6,55.4,57,29.93,10.0,North,15.0,-,N/A,,Scattered Clouds,360,2013-09-21 16:55:00
12:55 PM,75.2,57.2,53,29.91,10.0,Variable,6.9,-,N/A,,Scattered Clouds,0,2013-09-21 17:55:00
1:55 PM,75.2,55.4,50,29.89,10.0,North,9.2,-,N/A,,Partly Cloudy,360,2013-09-21 18:55:00
2:55 PM,77.0,55.4,47,29.88,10.0,North,9.2,-,N/A,,Partly Cloudy,10,2013-09-21 19:55:00
3:55 PM,75.2,55.4,50,29.86,10.0,North,8.1,-,N/A,,Partly Cloudy,350,2013-09-21 20:55:00
4:55 PM,77.0,55.4,47,29.87,10.0,NNW,11.5,-,N/A,,Partly Cloudy,330,2013-09-21 21:55:00
5:55 PM,73.4,55.4,53,29.87,10.0,North,6.9,-,N/A,,Partly Cloudy,10,2013-09-21 22:55:00
6:55 PM,68.0,57.2,68,29.88,10.0,Calm,Calm,-,N/A,,Partly Cloudy,0,2013-09-21 23:55:00
7:55 PM,64.4,57.2,77,29.88,10.0,Calm,Calm,-,N/A,,Clear,0,2013-09-22 00:55:00
8:55 PM,60.8,57.2,88,29.89,10.0,Calm,Calm,-,N/A,,Clear,0,2013-09-22 01:55:00
9:55 PM,60.8,57.2,88,29.90,10.0,Calm,Calm,-,N/A,,Clear,0,2013-09-22 02:55:00
10:55 PM,62.6,55.4,77,29.90,10.0,Calm,Calm,-,N/A,,Clear,0,2013-09-22 03:55:00
11:55 PM,60.8,53.6,77,29.89,10.0,NNE,3.5,-,N/A,,Clear,20,2013-09-22 04:55:00